Location: Berbisdorf
(50.7638°N, 12.9442°E)
Time: 02:08:05
(UTC+00:00)

BREEZE-M DEB (TANK) - Pass Details

Date: 09 October 2020
Orbit: 333 x 12040 km, 49.7° (Epoch: 19 October)

Event Time Altitude Azimuth Distance (km) Brightness Sun altitude
Rises 01:52:45 0° 186° (S) 14,298 8.9 -32.4°
Reaches altitude 10° 02:05:24 10° 183° (S) 14,513 9.0 -30.7°
Maximum altitude 03:34:12 57° 126° (SE) 10,273 8.6 -17.7°
Drops below altitude 10° 04:11:29 10° 62° (ENE) 7,667 9.1 -11.9°
Sets 04:15:21 0° 59° (ENE) 7,852 9.2 -11.3°
